Location: *
(37.5724°S, 58.0067°E)
Time: 10:51:53
(UTC+00:00)

CZ-3A R/B - Visible Passes

Search period start: 17 January 2021 00:00
Search period end: 27 January 2021 00:00
Orbit: 1288 x 30258 km, 55.4° (Epoch: 16 January)

Date Brightness Start Highest point End Pass type
(mag) Time Alt. Az. Time Alt. Az. Time Alt. Az.
17 Jan 5.6 00:14:19 10° W 00:40:01 39° SSW 00:47:32 10° SE visible
17 Jan 7.2 17:03:27 10° NNE 18:28:16 30° ENE 18:47:24 10° ESE visible
18 Jan 5.8 20:33:07 10° NNW 22:06:49 86° SW 22:17:30 10° SE visible
20 Jan 6.9 17:36:58 10° N 19:30:26 47° NE 19:46:34 10° ESE visible
21 Jan 5.6 22:09:38 10° NW 23:05:13 60° SW 23:14:20 10° SE visible
22 Jan 7.5 16:09:46 10° NE 16:49:20 16° ENE 17:06:57 10° E visible
23 Jan 6.2 18:31:54 10° N 20:31:09 69° NE 20:44:12 10° SE visible
24 Jan 5.7 23:37:22 10° W 00:03:42 39° SSW 00:11:17 10° SE visible
25 Jan 7.1 16:23:36 10° NNE 17:51:45 31° ENE 18:11:13 10° ESE visible
26 Jan 5.8 19:52:41 10° NNW 21:30:23 85° SW 21:41:14 10° SE visible
